DW8885 Weather Reports


Display with metric or nautical units.
time (UTC)temp
F
wind
direction
speed
MPH
gust
MPH
rain 1hr
in
rain 24hr
in
rain mn
in
humidity
%
barometer
mb
20260505024539 60 167 5.0 12.0 0.00 0.07 0.07 82 997.6
20260505023013 60 191 2.0 9.0 0.00 0.07 0.07 81 997.4
20260505021544 60 163 5.0 11.0 0.00 0.07 0.07 81 996.9
20260505020010 60 161 4.0 10.0 0.03 0.07 0.07 82 997.2
20260505014549 58 205 3.0 12.0 0.06 0.07 0.07 85 997.5
20260505013012 58 148 2.0 9.0 0.07 0.07 0.07 85 997.3
20260505011547 58 222 4.0 10.0 0.07 0.07 0.07 85 997.9
20260505010025 58 169 1.0 10.0 0.04 0.04 0.04 82 997.2
20260505004547 59 126 3.0 8.0 0.01 0.01 0.01 76 998.0
20260505003017 65 167 12.0 20.0 0.00 0.00 0.00 66 997.4
20260505001548 65 147 2.0 5.0 0.00 0.00 0.00 76 996.3
20260505000019 65 173 2.0 7.0 0.00 0.00 0.00 75 996.3
20260504234543 65 194 4.0 14.0 0.00 0.00 0.00 72 996.5
20260504233013 66 236 5.0 19.0 0.00 0.00 0.00 76 996.9
20260504231547 67 218 4.0 13.0 0.00 0.00 0.00 72 996.6
20260504230015 66 228 1.0 10.0 0.00 0.00 0.00 74 996.5
20260504224547 67 179 6.0 14.0 0.00 0.00 0.00 63 997.2
20260504223016 70 211 4.0 15.0 0.00 0.00 0.00 49 996.9
20260504221601 73 220 4.0 11.0 0.00 0.00 0.00 43 996.7
20260504220018 75 200 3.0 8.0 0.00 0.00 0.00 42 996.7
20260504214600 76 200 2.0 10.0 0.00 0.00 0.00 41 996.8
20260504213020 76 153 4.0 7.0 0.00 0.00 0.00 38 996.9
20260504211552 76 225 4.0 8.0 0.00 0.00 0.00 38 997.0
20260504210023 74 255 4.0 8.0 0.00 0.00 0.00 41 997.4
20260504204559 73 238 3.0 8.0 0.00 0.00 0.00 44 997.6
20260504203028 72 159 4.0 10.0 0.00 0.00 0.00 48 997.8
20260504201557 72 186 4.0 10.0 0.00 0.00 0.00 49 998.1
20260504200026 73 216 6.0 10.0 0.00 0.00 0.00 51 998.2
20260504194600 74 141 2.0 12.0 0.00 0.00 0.00 51 998.2
20260504193029 75 200 3.0 9.0 0.00 0.00 0.00 50 998.3
20260504191604 74 186 3.0 9.0 0.00 0.00 0.00 50 998.3
20260504190031 73 221 5.0 10.0 0.00 0.00 0.00 50 998.7
20260504184602 72 196 4.0 9.0 0.00 0.00 0.00 50 999.1
20260504183032 71 159 3.0 13.0 0.00 0.00 0.00 51 999.2
20260504181505 70 234 4.0 11.0 0.00 0.00 0.00 53 999.4
20260504180042 70 242 4.0 11.0 0.00 0.00 0.00 53 999.4
20260504174505 70 221 3.0 10.0 0.00 0.00 0.00 52 999.5
20260504173037 71 256 5.0 12.0 0.00 0.00 0.00 50 999.6
20260504171507 69 199 7.0 14.0 0.00 0.00 0.00 49 999.9
20260504100113 50 173 1.0 11.0 0.00 0.00 0.00 82 1002.2
20260504081535 52 173 2.0 9.0 0.00 0.00 0.00 78 1002.4
20260504060111 54 136 2.0 10.0 0.00 0.00 0.00 75 1003.9
20260504044558 54 125 4.0 15.0 0.00 0.00 0.00 72 1004.6
20260504043028 54 168 5.0 13.0 0.00 0.00 0.00 72 1004.6
20260504041601 55 132 3.0 14.0 0.00 0.00 0.00 71 1004.7
20260504040052 55 205 5.0 12.0 0.00 0.00 0.00 71 1004.8
20260504034559 55 139 4.0 11.0 0.00 0.00 0.00 70 1004.8
20260504033031 55 125 5.0 11.0 0.00 0.00 0.00 69 1004.9
20260504031601 56 85 3.0 14.0 0.00 0.00 0.00 68 1005.1
20260504030031 56 180 4.0 12.0 0.00 0.00 0.00 68 1005.1